Location: GMARS
(34.2910°N, 116.3838°W)
Time: 17:27:33
(UTC-07:00)

Daily predictions for brighter satellites

Satellite Brightness Start Highest point End
(mag) Time Altitude Azimuth Time Altitude Azimuth Time Altitude Azimuth
Meteor 1-5 Rocket 4.3 19:33:20 10° S 19:38:28 52° E 19:43:43 10° NNE
Cosmos 1536 3.2 19:35:19 10° SSW 19:39:16 71° W 19:43:17 10° N
Cosmos 1025 Rocket 3.0 19:35:39 10° N 19:40:01 78° E 19:44:19 10° S
Cosmos 2297 Rocket 3.5 19:36:37 10° N 19:41:03 23° ENE 19:45:26 10° ESE
NOAA 12 4.4 19:41:20 10° S 19:46:32 72° WSW 19:51:46 10° NNW
Cosmos 1892 Rocket 3.7 19:43:03 10° N 19:47:28 57° E 19:51:51 10° SSE
Cosmos 1455 Rocket 3.2 19:43:26 10° SSE 19:47:36 50° E 19:51:49 10° NNE
HJ-1C 3.3 19:45:01 10° SSE 19:48:16 90° NE 19:51:34 10° NNW
Meteor 2-14 Rocket 4.4 19:42:13 10° S 19:48:18 70° E 19:54:25 10° NNE
Meteor 1-29 3.3 19:45:19 10° N 19:48:46 72° WNW 19:52:13 10° SSW
Resurs 1-3 3.6 19:52:56 10° SSE 19:57:18 80° ENE 20:01:42 10° N
Cosmos 2123 Rocket 4.1 19:57:18 10° N 20:03:23 57° E 20:09:25 10° SSE
SL-24 R/B - RUBIN 2 4.3 20:04:45 10° SSW 20:10:20 69° ESE 20:16:39 10° NE
Cosmos 1777 Rocket 4.5 20:07:01 10° NNW 20:12:13 65° WSW 20:17:25 10° S
OAO 2 Rocket 3.3 20:08:04 10° W 20:13:04 89° N 20:17:25 14° E
Cosmos 1697 Rocket 3.0 20:08:48 10° S 20:14:03 41° ESE 20:19:20 10° NE
Myojo/LAPS 3.9 20:15:44 10° WSW 20:17:56 25° S 20:18:41 21° SE
Resurs 01 Rocket 3.0 20:15:20 10° S 20:19:29 40° W 20:23:40 10° NNW
Delta 2 Rocket 4.1 20:15:11 10° W 20:20:53 70° SSW 20:24:27 21° ESE
Cosmos 2278 4.5 20:16:10 10° SW 20:21:42 56° WNW 20:27:18 10° NNE
H-2A R/B 2.7 20:21:38 10° SSE 20:25:28 79° ENE 20:29:23 10° N
ALOS 2.3 20:20:51 10° SSE 20:25:30 86° WSW 20:30:12 10° NNW
CZ-4B DEB 3.7 20:22:46 10° S 20:25:57 51° W 20:29:09 10° NNW
Cosmos 1975 2.8 20:22:02 10° S 20:26:05 70° E 20:30:10 10° NNE
USA 186 1.5 20:24:35 18° SSE 20:26:48 70° ENE 20:29:45 10° N
Cosmos 1153 Rocket 4.4 20:23:12 10° S 20:29:18 66° E 20:35:24 10° NNE
NOSS 3-4 (A) 4.0 20:23:28 10° NNW 20:30:36 79° WSW 20:37:48 11° SSE
NOSS 3-4 (C) 4.0 20:23:35 10° NNW 20:30:43 79° WSW 20:37:52 12° SSE
Lacrosse 5 rocket 1.1 20:32:46 10° NNW 20:36:25 56° NE 20:37:27 39° ESE
OTV 4 0.3 20:33:36 10° WNW 20:36:33 82° SSW 20:37:04 56° ESE
Cosmos 1980 Rocket 2.6 20:31:58 10° S 20:37:10 38° ESE 20:42:22 10° NE
Envisat 3.7 20:40:39 29° ESE 20:42:02 34° ENE 20:46:33 10° N
Cosmos 2298 Rocket 4.3 20:37:19 10° N 20:42:29 50° ENE 20:44:41 31° SE
Cosmos 1447 Rocket 4.5 20:36:35 10° N 20:42:54 69° E 20:48:17 15° SSE
Cosmos 1802 Rocket 4.4 20:40:41 19° SSE 20:44:47 42° E 20:50:45 10° NNE
CZ-2D R/B 4.2 20:42:28 10° S 20:46:11 47° W 20:49:56 10° NNW
Iridium 4 Rocket 3.1 20:43:21 10° N 20:48:19 81° E 20:51:25 20° S
Cosmos 1937 Rocket 4.2 20:43:32 10° N 20:48:22 36° ENE 20:49:28 33° E
Tiangong 1 3.2 20:48:23 10° NW 20:50:38 18° N 20:51:20 17° NNE
Hubble Space Telescope 3.0 20:52:27 10° SW 20:54:37 14° SSW 20:55:13 14° SSW
Cosmos 2016 Rocket 4.3 20:55:44 34° SE 20:57:31 43° E 21:03:17 10° NNE
Cosmos 1500 3.4 20:55:52 16° SSW 20:58:49 69° W 21:02:35 10° N
Cosmos 1939 Rocket 2.9 21:01:50 57° E 21:01:56 58° ENE 21:06:01 10° N
Cosmos 1825 Rocket 4.1 21:03:11 10° N 21:06:47 42° NE 21:06:47 42° NE
Cosmos 2150 Rocket 3.8 21:03:22 10° NNW 21:08:32 78° ENE 21:09:44 53° SE
ERS-1 Rocket 2.8 21:08:10 44° SSE 21:09:47 87° ENE 21:14:50 10° NNW
Cosmos 2173 Rocket 3.9 21:03:42 11° S 21:09:49 80° E 21:16:10 10° N
Cosmos 2227 Rocket 3.3 21:04:41 10° NW 21:09:56 40° WSW 21:14:16 14° S
Cosmos 2322 Rocket 4.3 21:14:22 11° NE 21:14:22 11° NE 21:14:40 10° NE
BREEZE-M TANK 3.5 21:02:32 10° WNW 21:11:08 43° NNE 21:12:07 36° NE
Cosmos 2098 Rocket 4.4 21:10:28 42° ESE 21:11:19 44° E 21:17:05 10° NNE
Cosmos 1340 4.2 21:09:48 10° N 21:11:43 25° NNE 21:11:43 25° NNE
Lacrosse 5 2.3 21:10:06 10° NNW 21:14:58 45° NE 21:15:16 45° ENE
YAOGAN 11 4.4 21:15:32 45° SSW 21:16:47 66° WSW 21:21:14 10° NNW
H-2A R/B 2.8 21:17:55 39° NNE 21:17:55 39° NNE 21:20:50 10° N
Meteor 1-21 4.3 21:12:16 10° N 21:17:56 54° E 21:18:18 53° E
SPOT 5 3.3 21:19:02 46° ENE 21:19:02 46° ENE 21:23:15 10° N
Cosmos 2360 4.1 21:20:15 49° S 21:21:42 69° ESE 21:27:23 10° NNE
DELTA 2 R/B (1) 3.4 21:16:56 10° WNW 21:22:31 87° NNE 21:23:11 70° ESE
Cosmos 1763 Rocket 3.2 21:21:33 57° S 21:22:37 83° ESE 21:27:41 10° NNE
Cosmos 2100 Rocket 4.2 21:17:24 10° SSW 21:23:40 72° W 21:29:55 10° N
Cosmos 2297 Rocket 3.2 21:19:55 10° NW 21:25:13 43° WSW 21:28:02 25° SSW
Cosmos 1898 Rocket 3.7 21:22:03 10° NNW 21:27:18 65° WSW 21:28:26 50° SSW
Cosmos 2061 Rocket 4.2 21:25:05 11° SSW 21:31:07 69° W 21:37:22 10° N
RESURS DK-1 3.2 21:29:20 10° NNW 21:32:21 47° NNW 21:32:21 47° NNW
MetOp-A 4.3 21:36:02 61° NE 21:36:02 61° NE 21:40:48 10° N
Cosmos 1743 3.9 21:36:51 41° WNW 21:36:51 41° WNW 21:40:16 10° N
Tsikada Rocket 4.5 21:30:45 10° N 21:36:14 45° ENE 21:36:14 45° ENE
Cosmos 2084 4.3 21:33:53 10° NW 21:37:09 47° WNW 21:37:09 47° WNW
deb Chang Zheng 4 4.0 21:33:56 10° N 21:38:04 61° NW 21:38:04 61° NW
Cosmos 841 Rocket 3.7 21:44:51 66° W 21:45:12 69° WNW 21:50:26 10° NNE
Terra 4.3 21:50:19 11° NNE 21:50:19 11° NNE 21:50:40 10° NNE
Cosmos 1725 Rocket 3.9 21:57:34 79° N 21:57:34 79° N 22:03:23 10° N
OAO 2 Rocket 4.2 21:52:54 10° W 21:56:23 45° W 21:56:23 45° W
SL-16 R/B 3.9 22:09:54 24° NNE 22:09:54 24° NNE 22:12:00 10° NNE
ARGOS 4.2 22:16:34 41° NNW 22:16:34 41° NNW 22:20:00 10° NNW
CZ-3C R/B 4.1 22:05:53 10° W 22:20:05 23° SW 22:20:53 23° SW
Cosmos 1980 Rocket 4.2 22:16:36 10° WSW 22:21:12 25° WNW 22:25:52 10° N
H-2A R/B 4.1 22:39:08 21° N 22:39:08 21° N 22:40:42 10° N
Cosmos 2263 Rocket 4.1 22:46:41 10° NNW 22:48:52 24° N 22:48:52 24° N
Milstar 3 Cent rocket 4.2 22:36:49 10° W 22:51:21 47° SW 22:51:21 47° SW
Cosmos 2322 Rocket 4.1 22:56:07 25° NNW 22:56:07 25° NNW 22:59:00 10° N
